User: anonymous   Login
Location: Marne
(34.0056°N, 117.9064°W)
Time: 18:33:37
(UTC+00:00)
Language:

Cosmos 2084 Rocket - Orbit

View from above orbital plane
View from above orbital plane
View from above satellite
View from above satellite

Ground track
Ground track

The orbit data is extracted from the following two-line orbital elements,

1 20666U 90055D   20090.77234200 -.00000031 +00000-0 +14907-4 0  9995
2 20666 062.7880 347.4977 0033682 320.0398 039.8217 14.92320104613557
Epoch (UTC): 30 March 2020 18:32:10
Eccentricity: 0.0033682
inclination: 62.7880°
perigee height: 567 km
apogee height: 614 km
right ascension of ascending node: 347.4977°
argument of perigee: 320.0398°
revolutions per day: 14.92320104
mean anomaly at epoch: 39.8217°
orbit number at epoch: 61355

The dashed part of the orbit path shows where the satellite is in the earth's shadow,  

DLR